| time (UTC) | temp C | wind direction | speed KPH | gust KPH | rain 1hr cm | rain 24hr cm | rain mn cm | humidity % | barometer mb |
| 20260510021107 | 13 | 28 | 1.6 | 9.7 | 0.00 | 0.00 | 0.00 | 70 | 1009.6 |
| 20260510020107 | 13 | 37 | 3.2 | 12.9 | 0.00 | 0.00 | 0.00 | 69 | 1009.7 |
| 20260510015608 | 13 | 28 | 4.8 | 9.7 | 0.00 | 0.00 | 0.00 | 69 | 1009.7 |
| 20260510015108 | 13 | 49 | 6.4 | 19.3 | 0.00 | 0.00 | 0.00 | 69 | 1009.8 |
| 20260510014608 | 13 | 32 | 4.8 | 11.3 | 0.00 | 0.00 | 0.00 | 69 | 1009.8 |
| 20260510014107 | 13 | 20 | 8.0 | 12.9 | 0.00 | 0.00 | 0.00 | 69 | 1009.8 |
| 20260510013608 | 13 | 26 | 4.8 | 14.5 | 0.00 | 0.00 | 0.00 | 69 | 1009.8 |
| 20260510013107 | 13 | 36 | 4.8 | 11.3 | 0.00 | 0.00 | 0.00 | 69 | 1009.9 |
| 20260510012609 | 14 | 34 | 3.2 | 9.7 | 0.00 | 0.00 | 0.00 | 69 | 1009.9 |
| 20260510011108 | 14 | 28 | 4.8 | 11.3 | 0.00 | 0.00 | 0.00 | 69 | 1010.0 |
| 20260510010608 | 14 | 40 | 0.0 | 11.3 | 0.00 | 0.00 | 0.00 | 69 | 1010.1 |
| 20260510010109 | 14 | 37 | 3.2 | 8.0 | 0.00 | 0.00 | 0.00 | 68 | 1010.1 |
| 20260510005608 | 14 | 35 | 3.2 | 11.3 | 0.00 | 0.00 | 0.00 | 68 | 1010.1 |
| 20260510005108 | 14 | 41 | 4.8 | 11.3 | 0.00 | 0.00 | 0.00 | 68 | 1010.2 |
| 20260510004607 | 14 | 40 | 1.6 | 9.7 | 0.00 | 0.00 | 0.00 | 68 | 1010.2 |
| 20260510004108 | 14 | 35 | 3.2 | 11.3 | 0.00 | 0.00 | 0.00 | 68 | 1010.2 |
| 20260510003608 | 15 | 39 | 4.8 | 9.7 | 0.00 | 0.00 | 0.00 | 68 | 1010.3 |
| 20260510003108 | 15 | 32 | 3.2 | 11.3 | 0.00 | 0.00 | 0.00 | 68 | 1010.3 |
| 20260510002607 | 15 | 33 | 3.2 | 11.3 | 0.00 | 0.00 | 0.00 | 68 | 1010.5 |
| 20260510002109 | 15 | 36 | 1.6 | 9.7 | 0.00 | 0.00 | 0.00 | 68 | 1010.6 |
| 20260510001108 | 15 | 34 | 3.2 | 9.7 | 0.00 | 0.00 | 0.00 | 68 | 1010.6 |
| 20260510000608 | 15 | 31 | 1.6 | 11.3 | 0.00 | 0.00 | 0.00 | 68 | 1010.7 |
| 20260510000108 | 15 | 36 | 4.8 | 9.7 | 0.00 | 0.00 | 0.00 | 68 | 1010.7 |
| 20260509235608 | 15 | 47 | 4.8 | 9.7 | 0.00 | 0.00 | 0.00 | 68 | 1010.7 |
| 20260509235108 | 15 | 37 | 3.2 | 9.7 | 0.00 | 0.00 | 0.00 | 68 | 1010.8 |
| 20260509234608 | 15 | 38 | 4.8 | 9.7 | 0.00 | 0.00 | 0.00 | 69 | 1010.8 |
| 20260509234108 | 15 | 37 | 1.6 | 8.0 | 0.00 | 0.00 | 0.00 | 69 | 1010.9 |
| 20260509233608 | 15 | 41 | 3.2 | 4.8 | 0.00 | 0.00 | 0.00 | 69 | 1010.9 |
| 20260509233110 | 15 | 44 | 1.6 | 4.8 | 0.00 | 0.00 | 0.00 | 69 | 1011.0 |
| 20260509232607 | 15 | 43 | 1.6 | 4.8 | 0.00 | 0.00 | 0.00 | 68 | 1011.0 |
| 20260509232108 | 15 | 48 | 3.2 | 9.7 | 0.00 | 0.00 | 0.00 | 68 | 1011.0 |
| 20260509231609 | 15 | 40 | 1.6 | 8.0 | 0.00 | 0.00 | 0.00 | 68 | 1011.0 |
| 20260509231107 | 15 | 40 | 1.6 | 8.0 | 0.00 | 0.00 | 0.00 | 68 | 1011.1 |
| 20260509230608 | 15 | 42 | 1.6 | 4.8 | 0.00 | 0.00 | 0.00 | 68 | 1011.2 |
| 20260509230108 | 15 | 43 | 1.6 | 4.8 | 0.00 | 0.00 | 0.00 | 67 | 1011.3 |
| 20260509225608 | 15 | 47 | 1.6 | 8.0 | 0.00 | 0.00 | 0.00 | 67 | 1011.2 |
| 20260509225107 | 15 | 45 | 1.6 | 4.8 | 0.00 | 0.00 | 0.00 | 67 | 1011.2 |
| 20260509224608 | 15 | 46 | 3.2 | 9.7 | 0.00 | 0.00 | 0.00 | 67 | 1011.2 |
| 20260509224108 | 15 | 43 | 4.8 | 9.7 | 0.00 | 0.00 | 0.00 | 67 | 1011.2 |
| 20260509223609 | 15 | 44 | 0.0 | 4.8 | 0.00 | 0.00 | 0.00 | 68 | 1011.2 |
| 20260509223108 | 15 | 52 | 1.6 | 8.0 | 0.00 | 0.00 | 0.00 | 68 | 1011.2 |
| 20260509222608 | 15 | 56 | 1.6 | 4.8 | 0.00 | 0.00 | 0.00 | 68 | 1011.1 |
| 20260509222108 | 16 | 58 | 1.6 | 4.8 | 0.00 | 0.00 | 0.00 | 68 | 1011.1 |
| 20260509221608 | 16 | 60 | 0.0 | 4.8 | 0.00 | 0.00 | 0.00 | 68 | 1011.2 |
| 20260509221108 | 16 | 60 | 1.6 | 8.0 | 0.00 | 0.00 | 0.00 | 68 | 1011.2 |
| 20260509220609 | 16 | 62 | 1.6 | 4.8 | 0.00 | 0.00 | 0.00 | 68 | 1011.2 |
| 20260509220109 | 16 | 61 | 0.0 | 4.8 | 0.00 | 0.00 | 0.00 | 68 | 1011.2 |
| 20260509215609 | 16 | 61 | 1.6 | 4.8 | 0.00 | 0.00 | 0.00 | 68 | 1011.1 |
| 20260509214107 | 16 | 63 | 0.0 | 0.0 | 0.00 | 0.00 | 0.00 | 67 | 1011.2 |
| 20260509213606 | 16 | 63 | 0.0 | 0.0 | 0.00 | 0.00 | 0.00 | 67 | 1011.2 |
| 20260509213106 | 16 | 63 | 0.0 | 0.0 | 0.00 | 0.00 | 0.00 | 66 | 1011.3 |
| 20260509212606 | 16 | 62 | 0.0 | 0.0 | 0.00 | 0.00 | 0.00 | 66 | 1011.3 |
| 20260509212106 | 16 | 63 | 0.0 | 0.0 | 0.00 | 0.00 | 0.00 | 66 | 1011.3 |
| 20260509211607 | 17 | 63 | 0.0 | 0.0 | 0.00 | 0.00 | 0.00 | 66 | 1011.3 |
| 20260509210606 | 17 | 63 | 0.0 | 3.2 | 0.00 | 0.00 | 0.00 | 65 | 1011.4 |
| 20260509205106 | 17 | 63 | 0.0 | 0.0 | 0.00 | 0.00 | 0.00 | 65 | 1011.2 |
| 20260509204606 | 17 | 63 | 0.0 | 0.0 | 0.00 | 0.00 | 0.00 | 65 | 1011.2 |
| 20260509204106 | 17 | 63 | 0.0 | 0.0 | 0.00 | 0.00 | 0.00 | 65 | 1011.1 |
| 20260509203606 | 17 | 63 | 0.0 | 3.2 | 0.00 | 0.00 | 0.00 | 64 | 1011.2 |
| 20260509203107 | 17 | 62 | 0.0 | 0.0 | 0.00 | 0.00 | 0.00 | 64 | 1011.2 |
| 20260509202608 | 17 | 63 | 0.0 | 0.0 | 0.00 | 0.00 | 0.00 | 64 | 1011.3 |
| 20260509202107 | 17 | 63 | 0.0 | 0.0 | 0.00 | 0.00 | 0.00 | 64 | 1011.3 |
| 20260509201107 | 18 | 63 | 0.0 | 3.2 | 0.00 | 0.00 | 0.00 | 61 | 1011.2 |
| 20260509200606 | 18 | 62 | 0.0 | 0.0 | 0.00 | 0.00 | 0.00 | 60 | 1011.2 |
| 20260509195606 | 19 | 62 | 0.0 | 0.0 | 0.00 | 0.00 | 0.00 | 58 | 1011.1 |
| 20260509195106 | 19 | 62 | 0.0 | 0.0 | 0.00 | 0.00 | 0.00 | 58 | 1011.0 |
| 20260509194606 | 19 | 63 | 0.0 | 0.0 | 0.00 | 0.00 | 0.00 | 58 | 1011.0 |
| 20260509193605 | 20 | 62 | 0.0 | 0.0 | 0.00 | 0.00 | 0.00 | 57 | 1011.0 |
| 20260509193107 | 20 | 62 | 0.0 | 0.0 | 0.00 | 0.00 | 0.00 | 57 | 1010.9 |
| 20260509192606 | 20 | 63 | 0.0 | 3.2 | 0.00 | 0.00 | 0.00 | 57 | 1010.9 |
| 20260509192106 | 20 | 64 | 0.0 | 4.8 | 0.00 | 0.00 | 0.00 | 56 | 1010.9 |
| 20260509191607 | 20 | 57 | 3.2 | 4.8 | 0.00 | 0.00 | 0.00 | 56 | 1010.9 |
| 20260509191107 | 20 | 60 | 0.0 | 3.2 | 0.00 | 0.00 | 0.00 | 56 | 1010.8 |
| 20260509190607 | 20 | 61 | 0.0 | 0.0 | 0.00 | 0.00 | 0.00 | 55 | 1010.8 |
| 20260509185607 | 21 | 61 | 0.0 | 0.0 | 0.00 | 0.00 | 0.00 | 54 | 1010.8 |
| 20260509184606 | 21 | 61 | 0.0 | 0.0 | 0.00 | 0.00 | 0.00 | 52 | 1010.8 |
| 20260509184106 | 21 | 61 | 0.0 | 0.0 | 0.00 | 0.00 | 0.00 | 52 | 1010.6 |
| 20260509183105 | 22 | 61 | 1.6 | 3.2 | 0.00 | 0.00 | 0.00 | 50 | 1010.6 |
| 20260509182606 | 22 | 64 | 0.0 | 4.8 | 0.00 | 0.00 | 0.00 | 49 | 1010.6 |
| 20260509182107 | 22 | 70 | 3.2 | 8.0 | 0.00 | 0.00 | 0.00 | 49 | 1010.6 |
| 20260509181606 | 22 | 56 | 0.0 | 9.7 | 0.00 | 0.00 | 0.00 | 49 | 1010.6 |
| 20260509180608 | 22 | 51 | 1.6 | 9.7 | 0.00 | 0.00 | 0.00 | 48 | 1010.7 |
| 20260509180106 | 23 | 44 | 1.6 | 8.0 | 0.00 | 0.00 | 0.00 | 47 | 1010.7 |
| 20260509175106 | 23 | 116 | 1.6 | 11.3 | 0.00 | 0.00 | 0.00 | 46 | 1010.6 |
| 20260509174606 | 23 | 112 | 1.6 | 11.3 | 0.00 | 0.00 | 0.00 | 45 | 1010.7 |
| 20260509174106 | 23 | 106 | 4.8 | 12.9 | 0.00 | 0.00 | 0.00 | 45 | 1010.7 |
| 20260509173606 | 23 | 68 | 3.2 | 11.3 | 0.00 | 0.00 | 0.00 | 45 | 1010.6 |
| 20260509173106 | 23 | 91 | 1.6 | 11.3 | 0.00 | 0.00 | 0.00 | 44 | 1010.8 |
| 20260509172608 | 23 | 78 | 4.8 | 14.5 | 0.00 | 0.00 | 0.00 | 44 | 1010.8 |
| 20260509172107 | 23 | 87 | 1.6 | 12.9 | 0.00 | 0.00 | 0.00 | 44 | 1010.8 |
| 20260509171607 | 23 | 107 | 4.8 | 12.9 | 0.00 | 0.00 | 0.00 | 45 | 1010.8 |
| 20260509171107 | 23 | 109 | 4.8 | 19.3 | 0.00 | 0.00 | 0.00 | 45 | 1010.8 |
| 20260509165607 | 23 | 53 | 1.6 | 8.0 | 0.00 | 0.00 | 0.00 | 46 | 1010.9 |
| 20260509164605 | 23 | 61 | 0.0 | 4.8 | 0.00 | 0.00 | 0.00 | 46 | 1010.9 |
| 20260509164106 | 23 | 69 | 0.0 | 8.0 | 0.00 | 0.00 | 0.00 | 45 | 1010.9 |
| 20260509163607 | 23 | 72 | 1.6 | 8.0 | 0.00 | 0.00 | 0.00 | 44 | 1010.9 |
| 20260509163106 | 24 | 102 | 1.6 | 8.0 | 0.00 | 0.00 | 0.00 | 42 | 1010.9 |
| 20260509162107 | 24 | 65 | 6.4 | 20.9 | 0.00 | 0.00 | 0.00 | 43 | 1010.9 |
| 20260509161606 | 24 | 104 | 6.4 | 19.3 | 0.00 | 0.00 | 0.00 | 43 | 1010.9 |
| 20260509161106 | 24 | 137 | 3.2 | 12.9 | 0.00 | 0.00 | 0.00 | 44 | 1010.9 |
| 20260509160606 | 23 | 100 | 1.6 | 9.7 | 0.00 | 0.00 | 0.00 | 45 | 1011.1 |
| 20260509160107 | 23 | 79 | 3.2 | 8.0 | 0.00 | 0.00 | 0.00 | 44 | 1011.1 |
| 20260509155106 | 23 | 73 | 9.7 | 16.1 | 0.00 | 0.00 | 0.00 | 42 | 1011.1 |
| 20260509154106 | 24 | 46 | 0.0 | 8.0 | 0.00 | 0.00 | 0.00 | 45 | 1011.2 |
| 20260509153106 | 24 | 107 | 3.2 | 14.5 | 0.00 | 0.00 | 0.00 | 41 | 1011.3 |
| 20260509152607 | 25 | 70 | 1.6 | 12.9 | 0.00 | 0.00 | 0.00 | 43 | 1011.3 |
| 20260509151607 | 24 | 119 | 1.6 | 19.3 | 0.00 | 0.00 | 0.00 | 43 | 1011.4 |
| 20260509150607 | 25 | 107 | 1.6 | 8.0 | 0.00 | 0.00 | 0.00 | 43 | 1011.6 |
| 20260509150106 | 24 | 104 | 3.2 | 11.3 | 0.00 | 0.00 | 0.00 | 42 | 1011.5 |
| 20260509145106 | 25 | 72 | 3.2 | 20.9 | 0.00 | 0.00 | 0.00 | 43 | 1011.5 |
| 20260509144606 | 23 | 50 | 3.2 | 12.9 | 0.00 | 0.00 | 0.00 | 45 | 1011.6 |
| 20260509144107 | 23 | 70 | 4.8 | 16.1 | 0.00 | 0.00 | 0.00 | 45 | 1011.5 |
| 20260509143107 | 23 | 43 | 4.8 | 14.5 | 0.00 | 0.00 | 0.00 | 45 | 1011.6 |
| 20260509142606 | 23 | 56 | 3.2 | 11.3 | 0.00 | 0.00 | 0.00 | 46 | 1011.6 |
| 20260509142107 | 23 | 48 | 6.4 | 19.3 | 0.00 | 0.00 | 0.00 | 44 | 1011.6 |
| 20260509141606 | 23 | 56 | 4.8 | 11.3 | 0.00 | 0.00 | 0.00 | 45 | 1011.6 |
| 20260509140607 | 23 | 44 | 4.8 | 19.3 | 0.00 | 0.00 | 0.00 | 44 | 1011.6 |
| 20260509135606 | 24 | 59 | 4.8 | 19.3 | 0.00 | 0.00 | 0.00 | 45 | 1011.6 |
| 20260509135107 | 24 | 104 | 6.4 | 12.9 | 0.00 | 0.00 | 0.00 | 45 | 1011.6 |
| 20260509134606 | 23 | 91 | 8.0 | 19.3 | 0.00 | 0.00 | 0.00 | 45 | 1011.6 |
| 20260509134106 | 23 | 68 | 8.0 | 22.5 | 0.00 | 0.00 | 0.00 | 44 | 1011.6 |
| 20260509133606 | 23 | 51 | 3.2 | 19.3 | 0.00 | 0.00 | 0.00 | 45 | 1011.6 |
| 20260509133107 | 23 | 50 | 9.7 | 20.9 | 0.00 | 0.00 | 0.00 | 43 | 1011.7 |
| 20260509132606 | 24 | 90 | 3.2 | 19.3 | 0.00 | 0.00 | 0.00 | 44 | 1011.8 |
| 20260509132106 | 24 | 69 | 3.2 | 20.9 | 0.00 | 0.00 | 0.00 | 45 | 1011.9 |
| 20260509131606 | 23 | 102 | 4.8 | 16.1 | 0.00 | 0.00 | 0.00 | 39 | 1011.9 |
| 20260509131107 | 24 | 63 | 9.7 | 19.3 | 0.00 | 0.00 | 0.00 | 42 | 1011.9 |
| 20260509130107 | 24 | 84 | 4.8 | 14.5 | 0.00 | 0.00 | 0.00 | 44 | 1012.1 |
| 20260509125106 | 23 | 85 | 3.2 | 12.9 | 0.00 | 0.00 | 0.00 | 47 | 1012.2 |
| 20260509124606 | 23 | 104 | 8.0 | 16.1 | 0.00 | 0.00 | 0.00 | 47 | 1012.3 |
| 20260509124106 | 23 | 64 | 4.8 | 16.1 | 0.00 | 0.00 | 0.00 | 48 | 1012.3 |
| 20260509123606 | 23 | 63 | 4.8 | 11.3 | 0.00 | 0.00 | 0.00 | 48 | 1012.4 |
| 20260509122605 | 23 | 112 | 3.2 | 12.9 | 0.00 | 0.00 | 0.00 | 46 | 1012.5 |
| 20260509122106 | 24 | 108 | 9.7 | 22.5 | 0.00 | 0.00 | 0.00 | 45 | 1012.5 |
| 20260509121606 | 24 | 101 | 1.6 | 12.9 | 0.00 | 0.00 | 0.00 | 45 | 1012.4 |
| 20260509121107 | 23 | 114 | 3.2 | 14.5 | 0.00 | 0.00 | 0.00 | 45 | 1012.4 |
| 20260509120606 | 23 | 94 | 3.2 | 14.5 | 0.00 | 0.00 | 0.00 | 45 | 1012.5 |
| 20260509115606 | 23 | 104 | 8.0 | 14.5 | 0.00 | 0.00 | 0.00 | 46 | 1012.7 |
| 20260509115106 | 23 | 98 | 3.2 | 14.5 | 0.00 | 0.00 | 0.00 | 45 | 1012.6 |
| 20260509114606 | 23 | 85 | 3.2 | 14.5 | 0.00 | 0.00 | 0.00 | 48 | 1012.8 |
| 20260509114106 | 23 | 68 | 4.8 | 12.9 | 0.00 | 0.00 | 0.00 | 48 | 1012.9 |
| 20260509113606 | 22 | 113 | 9.7 | 16.1 | 0.00 | 0.00 | 0.00 | 47 | 1013.0 |
| 20260509113107 | 22 | 100 | 6.4 | 19.3 | 0.00 | 0.00 | 0.00 | 48 | 1013.0 |
| 20260509112608 | 22 | 108 | 8.0 | 19.3 | 0.00 | 0.00 | 0.00 | 48 | 1013.1 |
| 20260509112106 | 22 | 103 | 8.0 | 16.1 | 0.00 | 0.00 | 0.00 | 48 | 1013.1 |
| 20260509111606 | 22 | 64 | 1.6 | 12.9 | 0.00 | 0.00 | 0.00 | 49 | 1013.1 |
| 20260509111107 | 22 | 81 | 4.8 | 14.5 | 0.00 | 0.00 | 0.00 | 52 | 1013.1 |
| 20260509110607 | 22 | 53 | 3.2 | 12.9 | 0.00 | 0.00 | 0.00 | 53 | 1013.2 |
| 20260509110106 | 23 | 62 | 3.2 | 11.3 | 0.00 | 0.00 | 0.00 | 52 | 1013.1 |
| 20260509105106 | 22 | 46 | 3.2 | 11.3 | 0.00 | 0.00 | 0.00 | 55 | 1013.3 |
| 20260509104606 | 22 | 28 | 3.2 | 14.5 | 0.00 | 0.00 | 0.00 | 56 | 1013.3 |
| 20260509104108 | 22 | 101 | 3.2 | 11.3 | 0.00 | 0.00 | 0.00 | 54 | 1013.4 |
| 20260509103607 | 21 | 74 | 3.2 | 14.5 | 0.00 | 0.00 | 0.00 | 56 | 1013.4 |
| 20260509103106 | 21 | 83 | 3.2 | 9.7 | 0.00 | 0.00 | 0.00 | 57 | 1013.4 |
| 20260509102607 | 21 | 33 | 3.2 | 14.5 | 0.00 | 0.00 | 0.00 | 58 | 1013.5 |
| 20260509102106 | 21 | 38 | 3.2 | 14.5 | 0.00 | 0.00 | 0.00 | 57 | 1013.5 |
| 20260509101607 | 21 | 128 | 3.2 | 4.8 | 0.00 | 0.00 | 0.00 | 57 | 1013.5 |
| 20260509101107 | 21 | 73 | 1.6 | 4.8 | 0.00 | 0.00 | 0.00 | 58 | 1013.4 |
| 20260509100606 | 21 | 52 | 0.0 | 8.0 | 0.00 | 0.00 | 0.00 | 60 | 1013.5 |
| 20260509100106 | 21 | 116 | 1.6 | 8.0 | 0.00 | 0.00 | 0.00 | 57 | 1013.5 |
| 20260509095606 | 20 | 104 | 1.6 | 11.3 | 0.00 | 0.00 | 0.00 | 61 | 1013.5 |
| 20260509094606 | 20 | 43 | 4.8 | 11.3 | 0.00 | 0.00 | 0.00 | 60 | 1013.6 |
| 20260509093606 | 20 | 29 | 1.6 | 11.3 | 0.00 | 0.00 | 0.00 | 61 | 1013.6 |
| 20260509093106 | 20 | 78 | 3.2 | 9.7 | 0.00 | 0.00 | 0.00 | 62 | 1013.6 |
| 20260509092607 | 19 | 40 | 4.8 | 11.3 | 0.00 | 0.00 | 0.00 | 62 | 1013.6 |
| 20260509092108 | 19 | 23 | 4.8 | 12.9 | 0.00 | 0.00 | 0.00 | 62 | 1013.7 |
| 20260509091607 | 19 | 36 | 1.6 | 11.3 | 0.00 | 0.00 | 0.00 | 63 | 1013.7 |
| 20260509091106 | 19 | 37 | 1.6 | 8.0 | 0.00 | 0.00 | 0.00 | 63 | 1013.6 |
| 20260509090106 | 19 | 59 | 1.6 | 4.8 | 0.00 | 0.00 | 0.00 | 63 | 1013.7 |
| 20260509085607 | 19 | 53 | 1.6 | 9.7 | 0.00 | 0.00 | 0.00 | 63 | 1013.7 |
| 20260509085106 | 18 | 32 | 1.6 | 4.8 | 0.00 | 0.00 | 0.00 | 64 | 1013.7 |
| 20260509084607 | 18 | 36 | 0.0 | 4.8 | 0.00 | 0.00 | 0.00 | 67 | 1013.7 |
| 20260509084106 | 18 | 35 | 1.6 | 11.3 | 0.00 | 0.00 | 0.00 | 66 | 1013.6 |
| 20260509083606 | 18 | 40 | 0.0 | 4.8 | 0.00 | 0.00 | 0.00 | 66 | 1013.7 |
| 20260509082606 | 17 | 41 | 1.6 | 3.2 | 0.00 | 0.00 | 0.00 | 69 | 1013.8 |
| 20260509081107 | 17 | 43 | 1.6 | 4.8 | 0.00 | 0.00 | 0.00 | 70 | 1014.1 |
| 20260509080607 | 16 | 45 | 0.0 | 8.0 | 0.00 | 0.00 | 0.00 | 71 | 1014.0 |
| 20260509080106 | 16 | 52 | 0.0 | 0.0 | 0.00 | 0.00 | 0.00 | 71 | 1014.1 |
| 20260509075606 | 16 | 52 | 0.0 | 1.6 | 0.00 | 0.00 | 0.00 | 72 | 1014.1 |
| 20260509075106 | 16 | 54 | 0.0 | 4.8 | 0.00 | 0.00 | 0.00 | 73 | 1014.1 |
| 20260509074607 | 16 | 57 | 0.0 | 1.6 | 0.00 | 0.00 | 0.00 | 73 | 1014.0 |
| 20260509074106 | 15 | 59 | 0.0 | 0.0 | 0.00 | 0.00 | 0.00 | 75 | 1014.1 |
| 20260509073106 | 15 | 59 | 0.0 | 3.2 | 0.00 | 0.00 | 0.00 | 75 | 1014.2 |
| 20260509072607 | 14 | 59 | 0.0 | 0.0 | 0.00 | 0.00 | 0.00 | 76 | 1014.2 |
| 20260509072106 | 13 | 61 | 1.6 | 4.8 | 0.00 | 0.00 | 0.00 | 77 | 1014.2 |
| 20260509071608 | 13 | 61 | 0.0 | 1.6 | 0.00 | 0.00 | 0.00 | 78 | 1014.2 |
| 20260509071106 | 13 | 62 | 0.0 | 0.0 | 0.00 | 0.00 | 0.00 | 77 | 1014.2 |
| 20260509070607 | 13 | 62 | 0.0 | 0.0 | 0.00 | 0.00 | 0.00 | 78 | 1014.2 |
| 20260509065607 | 12 | 62 | 0.0 | 0.0 | 0.00 | 0.00 | 0.00 | 79 | 1014.3 |
| 20260509065106 | 12 | 62 | 0.0 | 0.0 | 0.00 | 0.00 | 0.00 | 80 | 1014.4 |
| 20260509064607 | 12 | 62 | 0.0 | 0.0 | 0.00 | 0.00 | 0.00 | 81 | 1014.4 |
| 20260509064106 | 12 | 62 | 0.0 | 0.0 | 0.00 | 0.00 | 0.00 | 81 | 1014.4 |
| 20260509063607 | 11 | 61 | 0.0 | 0.0 | 0.00 | 0.00 | 0.00 | 82 | 1014.3 |
| 20260509063106 | 11 | 62 | 0.0 | 0.0 | 0.00 | 0.00 | 0.00 | 82 | 1014.3 |
| 20260509062606 | 11 | 63 | 0.0 | 0.0 | 0.00 | 0.00 | 0.00 | 82 | 1014.1 |
| 20260509062107 | 11 | 63 | 0.0 | 0.0 | 0.00 | 0.00 | 0.00 | 83 | 1014.2 |
| 20260509061606 | 11 | 62 | 0.0 | 3.2 | 0.00 | 0.00 | 0.00 | 83 | 1014.3 |
| 20260509061106 | 11 | 61 | 0.0 | 4.8 | 0.00 | 0.00 | 0.00 | 83 | 1014.3 |
| 20260509060606 | 11 | 58 | 3.2 | 4.8 | 0.00 | 0.00 | 0.00 | 84 | 1014.2 |
| 20260509060106 | 10 | 53 | 1.6 | 4.8 | 0.00 | 0.00 | 0.00 | 85 | 1014.1 |
| 20260509055607 | 10 | 49 | 0.0 | 0.0 | 0.00 | 0.00 | 0.00 | 86 | 1014.0 |
| 20260509055106 | 10 | 45 | 3.2 | 4.8 | 0.00 | 0.00 | 0.00 | 86 | 1014.0 |
| 20260509054607 | 10 | 44 | 0.0 | 4.8 | 0.00 | 0.00 | 0.00 | 86 | 1014.0 |
| 20260509054106 | 10 | 44 | 1.6 | 8.0 | 0.00 | 0.00 | 0.00 | 86 | 1014.0 |
| 20260509053607 | 10 | 44 | 1.6 | 4.8 | 0.00 | 0.00 | 0.00 | 87 | 1013.9 |
| 20260509053106 | 9 | 44 | 0.0 | 0.0 | 0.00 | 0.00 | 0.00 | 87 | 1013.9 |
| 20260509052607 | 9 | 44 | 0.0 | 0.0 | 0.00 | 0.00 | 0.00 | 87 | 1013.9 |
| 20260509051608 | 9 | 44 | 0.0 | 4.8 | 0.00 | 0.00 | 0.00 | 87 | 1013.8 |
| 20260509051106 | 9 | 44 | 0.0 | 4.8 | 0.00 | 0.00 | 0.00 | 87 | 1013.8 |
| 20260509050606 | 9 | 44 | 0.0 | 3.2 | 0.00 | 0.00 | 0.00 | 87 | 1013.8 |
| 20260509050108 | 9 | 43 | 0.0 | 0.0 | 0.00 | 0.00 | 0.00 | 87 | 1013.8 |
| 20260509044606 | 8 | 44 | 0.0 | 3.2 | 0.00 | 0.00 | 0.00 | 87 | 1013.9 |
| 20260509044107 | 8 | 44 | 0.0 | 0.0 | 0.00 | 0.00 | 0.00 | 87 | 1013.7 |
| 20260509043607 | 8 | 44 | 0.0 | 3.2 | 0.00 | 0.00 | 0.00 | 87 | 1013.7 |
| 20260509043107 | 8 | 43 | 0.0 | 0.0 | 0.00 | 0.00 | 0.00 | 87 | 1013.8 |
| 20260509042607 | 8 | 44 | 0.0 | 1.6 | 0.00 | 0.00 | 0.00 | 87 | 1013.9 |
| 20260509042106 | 9 | 44 | 0.0 | 0.0 | 0.00 | 0.00 | 0.00 | 87 | 1013.8 |
| 20260509041608 | 9 | 44 | 0.0 | 0.0 | 0.00 | 0.00 | 0.00 | 87 | 1013.9 |
| 20260509041107 | 9 | 44 | 0.0 | 0.0 | 0.00 | 0.00 | 0.00 | 86 | 1013.9 |
| 20260509040606 | 9 | 44 | 0.0 | 0.0 | 0.00 | 0.00 | 0.00 | 86 | 1013.8 |
| 20260509040107 | 9 | 44 | 0.0 | 0.0 | 0.00 | 0.00 | 0.00 | 86 | 1013.8 |
| 20260509035107 | 9 | 44 | 0.0 | 1.6 | 0.00 | 0.00 | 0.00 | 86 | 1013.8 |
| 20260509034607 | 9 | 44 | 0.0 | 0.0 | 0.00 | 0.00 | 0.00 | 86 | 1013.8 |
| 20260509033606 | 9 | 43 | 0.0 | 0.0 | 0.00 | 0.00 | 0.00 | 86 | 1013.7 |
| 20260509033106 | 9 | 44 | 0.0 | 0.0 | 0.00 | 0.00 | 0.00 | 85 | 1013.8 |
| 20260509032606 | 9 | 44 | 0.0 | 3.2 | 0.00 | 0.00 | 0.00 | 85 | 1014.0 |
| 20260509032107 | 9 | 44 | 0.0 | 0.0 | 0.00 | 0.00 | 0.00 | 85 | 1014.0 |
| 20260509031607 | 9 | 44 | 0.0 | 0.0 | 0.00 | 0.00 | 0.00 | 85 | 1014.1 |
| 20260509030606 | 10 | 44 | 0.0 | 0.0 | 0.00 | 0.00 | 0.00 | 85 | 1014.1 |
| 20260509030107 | 10 | 42 | 0.0 | 0.0 | 0.00 | 0.00 | 0.00 | 85 | 1014.2 |
| 20260509025606 | 10 | 44 | 0.0 | 0.0 | 0.00 | 0.00 | 0.00 | 85 | 1014.3 |
| 20260509025107 | 10 | 44 | 0.0 | 0.0 | 0.00 | 0.00 | 0.00 | 85 | 1014.2 |
| 20260509024606 | 10 | 44 | 0.0 | 0.0 | 0.00 | 0.00 | 0.00 | 84 | 1014.3 |
| 20260509024107 | 10 | 44 | 0.0 | 0.0 | 0.00 | 0.00 | 0.00 | 84 | 1014.3 |
| 20260509023107 | 10 | 44 | 0.0 | 0.0 | 0.00 | 0.00 | 0.00 | 84 | 1014.2 |
| 20260509022107 | 10 | 43 | 0.0 | 0.0 | 0.00 | 0.00 | 0.00 | 84 | 1014.1 |
| 20260509021607 | 10 | 44 | 0.0 | 0.0 | 0.00 | 0.00 | 0.00 | 84 | 1014.0 |